Flag for Portugal Weather past 2 weeks in Vila Nova de Gaia, Portugal

Now
72 °F

Passing clouds.


Feels Like: 77 °F
Forecast: 57 / 73 °F
Wind: 9 mph from Northwest

Location: Porto / Pedras Rubras

Current Time: May 23, 2015 at 5:45:21 PM

Latest Report: May 23, 2015 at 5:00 PM


Visibility: N/A

Pressure: 30.04 "Hg

Humidity: 50%

Dew point: 52 °F

Location of Vila Nova de GaiaLocation

Historic Weather in Vila Nova de Gaia — Graph

°F

Vila Nova de Gaia temperature yesterday

Maximum temperature yesterday: 70 °F (at 4:30 PM)
Minimum temperature yesterday: 54 °F (at 5:30 AM)
Average temperature yesterday: 63 °F

Past Weeks' High & Low Weather Summary

 TemperatureHumidityPressure
High82 °F (May 17, 1:00 PM)100% (May 10, 12:30 AM)30.36 "Hg (May 10, 12:30 AM)
Low48 °F (May 15, 5:03 AM)31% (May 23, 11:30 AM)29.92 "Hg (May 18, 4:00 PM)
Average62 °F72%30.17 "Hg
* Reported May 8 4:00 PM — May 23 4:30 PM, Vila Nova de Gaia, Weather by CustomWeather, © 2015

Note: Actual official high and low records may vary slightly from our data, if they occured in-between our weather recording intervals... More about our weather records

Advertising

Vila Nova de Gaia weather history for previous 24 hours

 ConditionsComfort  
Time TempWeatherWind HumidityBarometerVisibility
4:30 PM
Sat, May 23
70 °FPassing clouds.9 mph53%30.04 "HgN/A
4:00 PM70 °FSunny.14 mph46%30.04 "Hg10 mi
3:30 PM68 °FPassing clouds.13 mph40%30.07 "HgN/A
3:00 PM70 °FSunny.15 mph40%30.07 "Hg10 mi
2:30 PM68 °FSunny.14 mph43%30.07 "Hg10 mi
2:00 PM68 °FPassing clouds.13 mph46%30.07 "HgN/A
1:30 PM68 °FPassing clouds.12 mph49%30.09 "HgN/A
1:00 PM68 °FPassing clouds.10 mph49%30.09 "HgN/A
12:30 PM68 °FSunny.9 mph53%30.09 "Hg10 mi
12:00 PM72 °FPassing clouds.8 mph31%30.09 "HgN/A
11:30 AM72 °FPassing clouds.7 mph31%30.09 "HgN/A
11:00 AM68 °FPassing clouds.8 mph33%30.12 "HgN/A
10:30 AM68 °FPassing clouds.8 mph33%30.12 "HgN/A
10:00 AM66 °FPassing clouds.8 mph40%30.12 "HgN/A
9:30 AM66 °FSunny.12 mph35%30.12 "Hg10 mi
9:00 AM64 °FPassing clouds.8 mph46%30.12 "HgN/A
8:30 AM63 °FPassing clouds.6 mph49%30.12 "HgN/A
8:00 AM59 °FPassing clouds.6 mph55%30.12 "HgN/A
7:30 AM59 °FPassing clouds.7 mph55%30.12 "HgN/A
6:30 AM55 °FPassing clouds.6 mph67%30.12 "HgN/A
6:00 AM52 °FClear.5 mph82%30.12 "Hg10 mi
5:30 AM55 °FClear.2 mph77%30.12 "Hg10 mi
5:00 AM55 °FClear.3 mph77%30.12 "Hg10 mi
4:30 AM54 °FClear.3 mph82%30.09 "Hg10 mi
3:30 AM54 °FClear.5 mph82%30.09 "Hg10 mi
3:00 AM55 °FClear.6 mph82%30.09 "Hg10 mi
2:30 AM57 °FClear.3 mph72%30.12 "Hg10 mi
2:00 AM57 °FPassing clouds.3 mph72%30.12 "HgN/A
1:30 AM55 °FClear.7 mph77%30.12 "Hg10 mi
1:00 AM59 °FClear.2 mph68%30.12 "Hg10 mi
12:30 AM57 °FClear.5 mph72%30.12 "Hg10 mi
12:00 AM63 °FClear.5 mph59%30.12 "Hg10 mi
11:30 PM
Fri, May 22
59 °FClear.5 mph77%30.12 "Hg10 mi
11:00 PM59 °FClear.5 mph77%30.12 "Hg10 mi
10:30 PM59 °FPassing clouds.3 mph77%30.12 "HgN/A
10:00 PM61 °FClear.5 mph72%30.12 "Hg10 mi
9:30 PM61 °FSunny.6 mph72%30.12 "Hg10 mi
9:00 PM63 °FSunny.5 mph68%30.12 "Hg10 mi
8:30 PM64 °FSunny.6 mph64%30.12 "Hg10 mi
8:00 PM64 °FSunny.5 mph64%30.12 "Hg10 mi
7:30 PM66 °FSunny.10 mph60%30.12 "Hg10 mi
7:00 PM68 °FSunny.9 mph56%30.12 "Hg10 mi
6:30 PM68 °FSunny.9 mph60%30.12 "Hg10 mi
6:00 PM70 °FSunny.10 mph53%30.12 "Hg10 mi
5:30 PM70 °FPassing clouds.12 mph50%30.12 "HgN/A
5:00 PM70 °FPassing clouds.12 mph53%30.15 "HgN/A
Weather by CustomWeather, © 2015

See weather overviewHow to use our weather pages